Flag for Dominican Republic Weather past 2 weeks in Santo Domingo, Dominican Republic

73 °F

Partly cloudy.

Feels Like: 70 °F
Forecast: 70 / 84 °F
Wind: 3 mph from North

Location: Las Americas

Current Time: Nov 27, 2015 at 1:40:39 AM

Latest Report: Nov 27, 2015 at 1:00 AM

Visibility: N/A

Pressure: 29.95 "Hg

Humidity: 94%

Dew point: 72 °F

Location of Santo DomingoLocation

Historic Weather in Santo Domingo — Graph


Santo Domingo temperature yesterday

Maximum temperature yesterday: 84 °F (at 11:00 AM)
Minimum temperature yesterday: 72 °F (at 3:00 AM)
Average temperature yesterday: 77 °F

Past Weeks' High & Low Weather Summary

High88 °F (Nov 12, 1:01 PM)100% (Nov 12, 2:00 AM)30.04 "Hg (Nov 12, 2:00 AM)
Low68 °F (Nov 21, 3:00 AM)49% (Nov 23, 1:00 PM)29.83 "Hg (Nov 20, 3:00 PM)
Average78 °F83%29.93 "Hg
* Reported Midnight between Nov 11 and Nov 12 — Midnight between Nov 26 and Nov 27, Santo Domingo, Weather by CustomWeather, © 2015

Note: Actual official high and low records may vary slightly from our data, if they occured in-between our weather recording intervals... More about our weather records


Santo Domingo weather history for previous 24 hours

Time TempWeatherWind HumidityBarometerVisibility
12:00 AM
Fri, Nov 27
73 °FPartly cloudy.7 mph89%29.95 "HgN/A
11:00 PM
Thu, Nov 26
73 °FPartly cloudy.6 mph94%29.98 "HgN/A
10:00 PM73 °FPartly cloudy.3 mph94%29.95 "HgN/A
9:00 PM75 °FPartly cloudy.No wind89%29.95 "HgN/A
8:00 PM75 °FPartly cloudy.5 mph89%29.95 "HgN/A
7:00 PM75 °FPartly cloudy.5 mph89%29.95 "HgN/A
6:00 PM75 °FPartly cloudy.No wind89%29.92 "HgN/A
5:00 PM77 °FScattered showers. Broken clouds.7 mph83%29.95 "Hg5 mi
4:00 PM79 °FSprinkles. Broken clouds.5 mph79%29.92 "Hg5 mi
3:00 PM84 °FScattered showers. Broken clouds.5 mph70%29.92 "Hg5 mi
2:00 PM84 °FPartly sunny.3 mph70%29.95 "HgN/A
1:00 PM84 °FScattered showers. Broken clouds.3 mph70%29.95 "Hg5 mi
12:00 PM84 °FBroken clouds.5 mph70%29.98 "HgN/A
11:00 AM84 °FBroken clouds.5 mph70%30.01 "HgN/A
10:00 AM82 °FScattered clouds.7 mph74%30.01 "HgN/A
9:00 AM81 °FScattered clouds.5 mph74%29.98 "HgN/A
8:00 AM73 °FPartly sunny.5 mph89%29.98 "HgN/A
7:00 AM72 °FScattered clouds.5 mph94%29.92 "HgN/A
6:00 AM72 °FPassing clouds.5 mph94%29.92 "HgN/A
5:00 AM72 °FPassing clouds.5 mph100%29.92 "HgN/A
4:00 AM72 °FPassing clouds.5 mph94%29.92 "HgN/A
3:00 AM72 °FPassing clouds.5 mph94%29.98 "HgN/A
2:00 AM73 °FPassing clouds.5 mph89%29.98 "HgN/A
1:00 AM73 °FPassing clouds.No wind89%29.98 "HgN/A
Weather by CustomWeather, © 2015

See weather overviewHow to use our weather pages